Tracking 19572 objects as of 24-Feb-2019
HD Live streaming from Space Station
objects crossing your sky now

GALAXY 9

Track GALAXY 9 now!
GALAXY 9 is classified as:


NORAD ID: 23877
Int'l Code: 1996-033A
Perigee: 35,985.6 km
Apogee: 36,011.3 km
Inclination: 7.8 °
Period: 1,446.6 minutes
Semi major axis: 42369 km
RCS: 8.797 m2 (large)
Launch date: May 24, 1996
Source: United States (US)
Launch site: AIR FORCE EASTERN TEST RANGE (AFETR)

Voice and vision communication; 24 C-band; North America, Caribbean.
aabbcc
Your satellite tracking list
Your tracking list is empty




NASA's NSSDC Master Catalog

Two Line Element Set (TLE):
1 23877U 96033A   19054.75049437 -.00000246  00000-0  00000+0 0  9998
2 23877   7.8372  49.2333 0003027 100.1587  77.1595  0.99545948 83114
Source of the keplerian elements: AFSPC